This is the latest recevied weather packets stored in our database for station/object KC5TIL-3. If no packets are shown the sender has not sent any weather packets the latest 10 day(s).
| Time | Temp. | Humidity | Pressure | Rain* | Wind** | Luminosity | Snow |
|---|---|---|---|---|---|---|---|
| 1777896557 | 17.22° C | 47% | 1009.8 hPa | 0 mm | 4.92 m/s, 228° | - | - |
| 1777896259 | 17.22° C | 47% | 1009.8 hPa | 0 mm | 4.92 m/s, 227° | - | - |
| 1777895961 | 17.22° C | 46% | 1009.8 hPa | 0 mm | 3.58 m/s, 212° | - | - |
| 1777895660 | 17.22° C | 46% | 1009.8 hPa | 0 mm | 4.02 m/s, 219° | - | - |
| 1777895362 | 17.22° C | 46% | 1009.8 hPa | 0 mm | 3.58 m/s, 217° | - | - |
| 1777895064 | 17.22° C | 46% | 1009.8 hPa | 0 mm | 4.47 m/s, 231° | - | - |
| 1777894758 | 17.22° C | 45% | 1009.8 hPa | 0 mm | 5.36 m/s, 243° | - | - |
| 1777894161 | 17.22° C | 45% | 1009.8 hPa | 0 mm | 5.36 m/s, 218° | - | - |
| 1777893860 | 17.22° C | 45% | 1009.8 hPa | 0 mm | 3.13 m/s, 198° | - | - |
| 1777893562 | 17.22° C | 44% | 1009.8 hPa | 0 mm | 4.47 m/s, 212° | - | - |
| 1777893264 | 17.22° C | 44% | 1009.8 hPa | 0 mm | 3.58 m/s, 195° | - | - |
| 1777892962 | 17.22° C | 44% | 1009.8 hPa | 0 mm | 4.47 m/s, 200° | - | - |
| 1777892660 | 17.22° C | 43% | 1010.8 hPa | 0 mm | 3.13 m/s, 220° | - | - |
| 1777892361 | 17.22° C | 43% | 1010.8 hPa | 0 mm | 3.58 m/s, 209° | - | - |
| 1777892060 | 17.22° C | 43% | 1010.8 hPa | 0 mm | 2.68 m/s, 216° | - | - |
| 1777891756 | 17.22° C | 42% | 1010.8 hPa | 0 mm | 4.02 m/s, 206° | - | - |
| 1777891449 | 17.22° C | 42% | 1010.8 hPa | 0 mm | 4.47 m/s, 194° | - | - |
| 1777891144 | 17.22° C | 42% | 1010.8 hPa | 0 mm | 3.58 m/s, 202° | - | - |
| 1777890845 | 17.22° C | 42% | 1010.8 hPa | 0 mm | 4.47 m/s, 201° | - | - |
| 1777889947 | 17.22° C | 42% | 1010.8 hPa | 0 mm | 4.02 m/s, 191° | - | - |
| 1777889649 | 17.22° C | 42% | 1010.8 hPa | 0 mm | 4.02 m/s, 207° | - | - |
| 1777889348 | 17.22° C | 42% | 1010.8 hPa | 0 mm | 4.47 m/s, 222° | - | - |
| 1777889049 | 17.22° C | 42% | 1010.8 hPa | 0 mm | 3.58 m/s, 195° | - | - |
| 1777888751 | 17.22° C | 42% | 1010.8 hPa | 0 mm | 3.13 m/s, 222° | - | - |
| 1777888451 | 17.22° C | 42% | 1010.8 hPa | 0 mm | 2.68 m/s, 198° | - | - |
* Rain latest hour (hover to see other rain measurements)
** Current wind speed in m/s (hover to see current wind gust speed)